Flag for Canada Weather past 2 weeks in Edmonton, Alberta, Canada

Now
1 °F

Clear.


Feels Like: -15 °F
Forecast: -5 / 14 °F
Wind: 12 mph from Northwest

Location: Edmonton Municipal

Current Time: Mar 3, 2015 at 5:51:40 AM

Latest Report: Mar 3, 2015 at 5:00 AM


Visibility: 9 mi

Pressure: 30.40 "Hg

Humidity: 65%

Dew point: -8 °F

Location of EdmontonLocation

Historic Weather in Edmonton — Graph

°F

Edmonton temperature yesterday

Maximum temperature yesterday: 28 °F (at 2:00 AM)
Minimum temperature yesterday: 3 °F (at 11:00 PM)
Average temperature yesterday: 18 °F

Past Weeks' High & Low Weather Summary

 TemperatureHumidityPressure
High46 °F (Feb 23, 3:00 PM)93% (Feb 17, 1:00 PM)30.76 "Hg (Feb 17, 1:00 PM)
Low-2 °F (Feb 26, 2:00 AM)43% (Feb 21, 3:00 PM)29.81 "Hg (Feb 19, 2:59 AM)
Average20 °F72%30.27 "Hg
* Reported Feb 16 4:00 AM — Mar 3 4:00 AM, Edmonton, Weather by CustomWeather, © 2015

Note: Actual official high and low records may vary slightly from our data, if they occured in-between our weather recording intervals... More about our weather records

Advertising

Edmonton weather history for previous 24 hours

 ConditionsComfort  
Time TempWeatherWind HumidityBarometerVisibility
4:00 AM
Tue, Mar 3
3 °FClear.8 mph60%30.42 "Hg9 mi
3:00 AM3 °FClear.10 mph60%30.44 "Hg9 mi
2:00 AM3 °FClear.7 mph60%30.45 "Hg9 mi
1:00 AM3 °FClear.9 mph60%30.47 "Hg9 mi
12:00 AM3 °FClear.8 mph60%30.46 "Hg9 mi
11:00 PM
Mon, Mar 2
3 °FClear.9 mph60%30.46 "Hg9 mi
10:00 PM5 °FClear.15 mph60%30.45 "Hg9 mi
9:00 PM7 °FClear.17 mph61%30.44 "Hg9 mi
8:00 PM9 °FPassing clouds.12 mph51%30.42 "Hg9 mi
7:00 PM9 °FPassing clouds.12 mph56%30.42 "Hg9 mi
6:00 PM10 °FSunny.16 mph56%30.39 "Hg9 mi
5:00 PM12 °FSunny.21 mph57%30.37 "Hg9 mi
4:00 PM14 °FPassing clouds.22 mph57%30.34 "Hg9 mi
3:00 PM14 °FPassing clouds.22 mph52%30.32 "Hg9 mi
2:00 PM14 °FPassing clouds.23 mph57%30.31 "Hg9 mi
1:00 PM14 °FIce fog.24 mph67%30.30 "Hg2 mi
12:46 PM16 °FIce fog.17 mph67%30.18 "Hg1 mi
12:00 PM16 °FPassing clouds.16 mph62%30.30 "Hg9 mi
11:00 AM16 °FOvercast.18 mph73%30.28 "Hg6 mi
10:00 AM18 °FPartly sunny.21 mph62%30.24 "Hg4 mi
9:00 AM19 °FOvercast.20 mph68%30.20 "Hg2 mi
8:58 AM19 °FOvercast.18 mph73%30.08 "Hg1 mi
8:00 AM21 °FOvercast.22 mph80%30.15 "Hg9 mi
7:55 AM21 °FOvercast.21 mph80%30.03 "Hg9 mi
7:00 AM21 °FLight snow. Overcast.14 mph80%30.13 "Hg2 mi
6:53 AM21 °FLight snow. Overcast.15 mph80%30.01 "Hg2 mi
6:02 AM21 °FLight snow. Ice fog.18 mph80%29.99 "Hg1 mi
6:00 AM21 °FLight snow. Ice fog.17 mph80%30.10 "Hg2 mi
5:58 AM21 °FLight snow. Ice fog.17 mph80%29.99 "Hg2 mi
5:00 AM23 °FLight snow. Overcast.16 mph86%30.03 "Hg1 mi
Weather by CustomWeather, © 2015

See weather overviewHow to use our weather pages